Regional Weather Roundup
Issued by NWS Jackson, KY

Home | Current Version | Previous Version | Graphics & Text | Print | Product List | Glossary On
Versions: 1 2 3 4 5 6 7 8 9 10 11 12 13 14 15 16 17 18 19 20 21 22 23 24 25 26 27 28 29 30 31 32 33 34 35 36 37 38 39 40 41 42 43 44 45 46 47 48 49 50
482
ASUS43 KJKL 210110
RWRJKL

EAST KENTUCKY HOURLY WEATHER ROUNDUP
NATIONAL WEATHER SERVICE JACKSON KY
800 PM EST TUE FEB 20 2018

NOTE: "FAIR" INDICATES FEW OR NO CLOUDS BELOW 12,000 FEET WITH
NO SIGNIFICANT WEATHER AND/OR OBSTRUCTIONS TO VISIBILITY.

* THESE REPORTS ARE NOT UNDER NWS QUALITY CONTROL AND MAY NOT
  REPORT WEATHER SUCH AS PRECIPITATION AND FOG.

KYZ079-080-083-085-087-088-110-112-115-119-120-210200
...EASTERN KENTUCKY...

CITY           SKY/WX    TMP DP  RH WIND       PRES   REMARKS
JACKSON        CLOUDY    72  52  49 S7        30.27R
LONDON         CLOUDY    71  55  56 S13       30.26S
SOMERSET*      CLOUDY    70  55  60 MISG      30.25S
WILLIAMSBURG*  CLOUDY    72  55  56 S10       30.27S
MIDDLESBORO*   CLOUDY    71  55  55 S6        30.30S
HARLAN APT*    MOCLDY    72  46  40 CALM      30.30F
PIKE CO APT*   MOCLDY    71  50  48 CALM      30.28R
BIG SANDY APT*   N/A     73  51  45 SW7       30.27R
MOREHEAD APT*    N/A     72  52  49 S12G22    30.22F
ASHLAND*         N/A     73  54  51 SW5       30.21R
$$

KYZ035-036-041-042-044-050-067-078-099-210200
...CENTRAL KENTUCKY...

CITY           SKY/WX    TMP DP  RH WIND       PRES   REMARKS
MT STERLING*     N/A     70  54  56 SW12      30.22S
FLEMING/MASON*   N/A     68  55  62 S10       30.20S
DANVILLE*        N/A     68  55  64 S9        30.22R
LEXINGTON        N/A     70  55  59 S10       30.19S
FRANKFORT        N/A     71  54  54 S8        30.16S
LOUISVILLE     CLOUDY    75  57  53 S10       30.13S
LEBANON*         N/A     72  55  56 S9        30.18S
GLASGOW*         N/A     71  57  62 S7        30.18S
BOWLING GREEN  MOCLDY    73  59  61 S8        30.16S
$$

KYZ091>093-OHZ055-061-077-WVZ005-015-034-035-042-210200
...SOUTHERN OHIO/WEST VIRGINIA...

CITY           SKY/WX    TMP DP  RH WIND       PRES   REMARKS
COVINGTON      MOCLDY    72  56  57 S10       30.13R
COLUMBUS       CLOUDY    69  55  60 S9        30.13S
DAYTON         MOCLDY    70  55  59 S17       30.11S
WILMINGTON       N/A     66  55  67 S12       30.14S
HUNTINGTON       N/A     73  52  47 SW8       30.22R
CHARLESTON       N/A     71  49  45 S8        30.22S
BECKLEY          N/A     63  52  67 SE12      30.33R
BLUEFIELD        N/A     60  50  69 VRB7G17   30.38R
LOGAN CO APT*    N/A     72  46  40 CALM      30.27S
$$

VAZ002-007-008-TNZ017-027-036-066-071-210200
...SOUTHWEST VIRGINIA/EAST TENNESSEE...

CITY           SKY/WX    TMP DP  RH WIND       PRES   REMARKS
WISE*          MOCLDY    64  50  59 SW6       30.36S
JONESVILLE*      N/A     68  54  60 S6        30.34S
ABINGDON*        N/A     66  53  63 S5        30.37R
BRISTOL        MOCLDY    68  55  63 S7        30.35R
MORRISTOWN*    CLOUDY    72  52  49 S8        30.32S
SEVIERVILLE*   CLOUDY    73  52  46 S6        30.31S
KNOXVILLE      CLOUDY    70  55  59 S7        30.29F
LAFOLLETTE*    CLOUDY    70  55  60 VRB6      30.33S
OAK RIDGE      CLOUDY    71  58  63 VRB5      30.30F
CROSSVILLE     CLOUDY    66  58  75 S12G20    30.29S
NASHVILLE        N/A     71  60  68 S10       30.18S
$$

...KEY TO REMARKS...
VSB - VISIBILITY IN MILES
WCI - WIND CHILL INDEX
HX  - HEAT INDEX

$$




USA.gov is the U.S. government's official web portal to all federal, state and local government web resources and services.